Flag for South Africa Weather past 2 weeks in Stellenbosch, South Africa

Now
55 °F

Drizzle. Mostly cloudy.


Feels Like: 55 °F
Forecast: 49 / 67 °F
Wind: 5 mph from Northwest

Location: Cape Town International Airport

Current Time: Aug 29, 2015 at 9:58:22 AM

Latest Report: Aug 29, 2015 at 9:00 AM


Visibility: 4 mi

Pressure: 30.18 "Hg

Humidity: 88%

Dew point: 52 °F

Location of StellenboschLocation

Historic Weather in Stellenbosch — Graph

°F

Stellenbosch temperature yesterday

Maximum temperature yesterday: 61 °F (at 10:00 AM)
Minimum temperature yesterday: 55 °F (at 5:00 AM)
Average temperature yesterday: 58 °F

Past Weeks' High & Low Weather Summary

 TemperatureHumidityPressure
High75 °F (Aug 21, 3:00 PM)100% (Aug 14, 9:00 AM)30.33 "Hg (Aug 14, 9:00 AM)
Low43 °F (Aug 17, 6:00 AM)41% (Aug 21, 3:00 PM)29.86 "Hg (Aug 14, 9:00 PM)
Average58 °F85%30.07 "Hg
* Reported Aug 14 8:00 AM — Aug 29 8:00 AM, Stellenbosch, Weather by CustomWeather, © 2015

Note: Actual official high and low records may vary slightly from our data, if they occured in-between our weather recording intervals... More about our weather records

Advertising

Stellenbosch weather history for previous 24 hours

 ConditionsComfort  
Time TempWeatherWind HumidityBarometerVisibility
8:00 AM
Sat, Aug 29
55 °FPartly sunny.6 mph82%30.15 "HgN/A
7:00 AM55 °FPartly sunny.9 mph82%30.12 "HgN/A
6:00 AM55 °FPartly cloudy.10 mph77%30.09 "HgN/A
5:00 AM55 °FPartly cloudy.9 mph77%30.09 "HgN/A
4:00 AM55 °FPartly cloudy.7 mph77%30.07 "HgN/A
3:00 AM55 °FPartly cloudy.8 mph77%30.09 "HgN/A
2:00 AM55 °FPassing clouds.5 mph77%30.09 "HgN/A
1:00 AM55 °FPassing clouds.6 mph77%30.09 "HgN/A
12:00 AM55 °FPassing clouds.7 mph77%30.09 "HgN/A
11:00 PM
Fri, Aug 28
55 °FPassing clouds.7 mph77%30.09 "HgN/A
10:00 PM55 °FPassing clouds.9 mph77%30.09 "HgN/A
9:00 PM55 °FPassing clouds.6 mph82%30.09 "HgN/A
8:00 PM57 °FPassing clouds.7 mph77%30.09 "HgN/A
7:00 PM57 °FPassing clouds.10 mph77%30.07 "HgN/A
6:00 PM59 °FPassing clouds.13 mph68%30.07 "HgN/A
5:00 PM59 °FPartly sunny.17 mph68%30.04 "HgN/A
4:00 PM61 °FPartly sunny.12 mph63%30.04 "HgN/A
3:00 PM61 °FPartly sunny.18 mph63%30.04 "HgN/A
2:00 PM61 °FPartly sunny.18 mph63%30.04 "HgN/A
1:00 PM61 °FPartly sunny.17 mph68%30.07 "HgN/A
12:00 PM59 °FPartly sunny.16 mph72%30.07 "HgN/A
11:00 AM59 °FBroken clouds.15 mph77%30.07 "HgN/A
10:00 AM61 °FPartly sunny.9 mph68%30.07 "HgN/A
9:00 AM59 °FPartly sunny.14 mph72%30.04 "HgN/A
Weather by CustomWeather, © 2015

See weather overviewHow to use our weather pages